QPF
0.00 0.00 0.00 0.00 0.00 0.00 0.00 0.00 0.00 0.00 0.00 0.00 0.00 0.00 0.00 0.00 0.00 0.00 0.00 0.00 0.00 0.00 0.00 0.00 0.00 0.00 0.00 0.00 0.00 0.00 0.00 0.00 0.01 0.00 0.00 0.00 0.01 0.01 0.00 0.01 0.01 0.04 0.05 0.03
0.00 0.00 0.00 0.00 0.00 0.00 0.00 0.00 0.00 0.00 0.00 0.00 0.00 0.00 0.00 0.00 0.00 0.00 0.00 0.00 0.00 0.00 0.00 0.00 0.00 0.00 0.00 0.00 0.00 0.00 0.00 0.00 0.01 0.01 0.00 0.00 0.00 0.00 0.00 0.00 0.00 0.03 0.04 0.02
0.00 0.00 0.00 0.00 0.00 0.00 0.00 0.00 0.00 0.00 0.00 0.00 0.00 0.00 0.00 0.00 0.00 0.00 0.00 0.00 0.00 0.00 0.00 0.00 0.00 0.00 0.00 0.00 0.00 0.00 0.00 0.00 0.00 0.01 0.00 0.00 0.00 0.00 0.01 0.00 0.00 0.00 0.02 0.02
0.00 0.00 0.00 0.00 0.00 0.00 0.00 0.00 0.00 0.00 0.00 0.00 0.00 0.00 0.00 0.00 0.00 0.00 0.00 0.00 0.00 0.00 0.00 0.00 0.00 0.00 0.00 0.00 0.00 0.00 0.00 0.00 0.00 0.01 0.01 0.01 0.01 0.01 0.00 0.00 0.00 0.00 0.00 0.00
0.00 0.00 0.00 0.00 0.00 0.00 0.00 0.00 0.00 0.00 0.00 0.00 0.00 0.00 0.00 0.00 0.00 0.00 0.00 0.00 0.00 0.00 0.00 0.00 0.00 0.00 0.00 0.00 0.00 0.00 0.00 0.00 0.00 0.00 0.00 0.01 0.01 0.02 0.02 0.02 0.01 0.00 0.00 0.00
0.00 0.00 0.00 0.00 0.00 0.00 0.00 0.00 0.00 0.00 0.00 0.00 0.00 0.00 0.00 0.00 0.00 0.00 0.00 0.00 0.00 0.00 0.00 0.00 0.00 0.00 0.00 0.00 0.00 0.00 0.00 0.00 0.00 0.00 0.00 0.00 0.01 0.02 0.03 0.04 0.01 0.00 0.00 0.00
0.00 0.00 0.00 0.00 0.00 0.00 0.00 0.00 0.00 0.00 0.00 0.00 0.00 0.00 0.00 0.00 0.00 0.00 0.00 0.00 0.00 0.00 0.00 0.00 0.00 0.00 0.00 0.00 0.00 0.00 0.00 0.00 0.00 0.00 0.00 0.00 0.00 0.00 0.01 0.02 0.02 0.01 0.00 0.00
0.00 0.00 0.00 0.00 0.00 0.00 0.00 0.00 0.00 0.00 0.00 0.00 0.00 0.00 0.00 0.00 0.00 0.00 0.00 0.00 0.00 0.00 0.00 0.00 0.00 0.00 0.00 0.00 0.00 0.00 0.00 0.00 0.00 0.00 0.00 0.00 0.00 0.00 0.00 0.00 0.00 0.02 0.01 0.00
0.00 0.00 0.00 0.00 0.00 0.00 0.00 0.00 0.00 0.00 0.00 0.00 0.00 0.00 0.00 0.00 0.00 0.00 0.00 0.00 0.00 0.00 0.00 0.00 0.00 0.00 0.00 0.00 0.00 0.00 0.00 0.00 0.00 0.00 0.00 0.00 0.00 0.00 0.00 0.00 0.00 0.01 0.01 0.01
0.00 0.00 0.00 0.00 0.00 0.00 0.00 0.00 0.00 0.00 0.00 0.00 0.00 0.00 0.00 0.00 0.00 0.00 0.00 0.00 0.00 0.00 0.00 0.00 0.00 0.00 0.00 0.00 0.00 0.00 0.00 0.00 0.00 0.00 0.00 0.00 0.00 0.00 0.00 0.00 0.00 0.00 0.00 0.00
0.00 0.00 0.00 0.00 0.00 0.00 0.00 0.00 0.00 0.00 0.00 0.00 0.00 0.00 0.00 0.00 0.00 0.00 0.00 0.00 0.00 0.00 0.00 0.00 0.00 0.00 0.00 0.00 0.00 0.00 0.00 0.00 0.00 0.00 0.00 0.00 0.00 0.00 0.00 0.00 0.00 0.00 0.00 0.00
0.00 0.00 0.00 0.00 0.00 0.00 0.00 0.00 0.00 0.01 0.00 0.00 0.01 0.01 0.00 0.00 0.00 0.00 0.00 0.00 0.00 0.00 0.00 0.00 0.00 0.00 0.00 0.00 0.00 0.00 0.00 0.00 0.00 0.00 0.00 0.00 0.00 0.00 0.00 0.00 0.00 0.00 0.00 0.00
0.00 0.00 0.00 0.00 0.00 0.00 0.00 0.00 0.00 0.00 0.00 0.01 0.02 0.01 0.00 0.00 0.00 0.00 0.00 0.00 0.00 0.00 0.00 0.00 0.00 0.00 0.00 0.00 0.00 0.00 0.00 0.00 0.00 0.00 0.00 0.00 0.00 0.00 0.00 0.00 0.00 0.00 0.00 0.00
0.00 0.00 0.00 0.00 0.00 0.00 0.00 0.00 0.00 0.00 0.00 0.00 0.01 0.00 0.00 0.00 0.00 0.00 0.00 0.00 0.00 0.00 0.00 0.00 0.00 0.00 0.00 0.00 0.00 0.00 0.00 0.00 0.00 0.00 0.00 0.00 0.00 0.00 0.00 0.00 0.00 0.00 0.00 0.00
0.00 0.00 0.00 0.00 0.00 0.00 0.00 0.00 0.00 0.00 0.00 0.00 0.00 0.00 0.00 0.00 0.00 0.00 0.00 0.00 0.00 0.00 0.00 0.00 0.00 0.00 0.00 0.00 0.00 0.00 0.00 0.00 0.00 0.00 0.00 0.00 0.00 0.00 0.00 0.00 0.00 0.00 0.00 0.00
0.00 0.00 0.00 0.00 0.00 0.00 0.00 0.00 0.00 0.00 0.00 0.00 0.00 0.00 0.00 0.00 0.00 0.00 0.00 0.00 0.00 0.00 0.00 0.00 0.00 0.00 0.00 0.00 0.00 0.00 0.00 0.00 0.00 0.00 0.00 0.00 0.00 0.00 0.00 0.00 0.00 0.00 0.00 0.00
0.00 0.00 0.00 0.00 0.00 0.00 0.00 0.00 0.00 0.00 0.00 0.00 0.00 0.00 0.00 0.00 0.00 0.00 0.00 0.00 0.00 0.00 0.00 0.00 0.00 0.00 0.00 0.00 0.00 0.00 0.00 0.00 0.00 0.00 0.00 0.00 0.00 0.00 0.00 0.00 0.00 0.00 0.00 0.00
0.00 0.00 0.00 0.00 0.00 0.00 0.00 0.00 0.00 0.00 0.00 0.00 0.00 0.00 0.00 0.00 0.00 0.00 0.00 0.00 0.00 0.00 0.00 0.00 0.00 0.00 0.00 0.00 0.00 0.00 0.00 0.00 0.00 0.00 0.00 0.00 0.00 0.00 0.00 0.00 0.00 0.00 0.00 0.00
0.00 0.00 0.00 0.00 0.00 0.00 0.00 0.00 0.00 0.00 0.00 0.00 0.00 0.00 0.00 0.00 0.00 0.00 0.00 0.00 0.00 0.00 0.00 0.00 0.00 0.00 0.00 0.00 0.00 0.00 0.00 0.00 0.00 0.00 0.00 0.00 0.00 0.00 0.00 0.00 0.00 0.00 0.00 0.00
0.00 0.00 0.00 0.00 0.01 0.00 0.00 0.00 0.00 0.00 0.00 0.00 0.00 0.00 0.00 0.00 0.00 0.00 0.00 0.00 0.00 0.00 0.00 0.00 0.00 0.00 0.00 0.00 0.00 0.00 0.00 0.00 0.00 0.00 0.00 0.00 0.00 0.00 0.00 0.00 0.00 0.00 0.00 0.00
0.00 0.00 0.01 0.00 0.02 0.01 0.00 0.00 0.00 0.00 0.00 0.00 0.00 0.00 0.00 0.00 0.00 0.00 0.00 0.00 0.00 0.00 0.00 0.00 0.00 0.00 0.00 0.00 0.00 0.00 0.00 0.00 0.00 0.00 0.00 0.00 0.00 0.00 0.00 0.00 0.00 0.00 0.00 0.00
0.00 0.00 0.00 0.00 0.01 0.01 0.00 0.00 0.00 0.00 0.00 0.00 0.00 0.00 0.00 0.00 0.00 0.00 0.00 0.00 0.00 0.00 0.00 0.00 0.00 0.00 0.00 0.00 0.00 0.00 0.00 0.00 0.00 0.00 0.00 0.00 0.00 0.00 0.00 0.00 0.00 0.00 0.00 0.00
0.00 0.00 0.00 0.00 0.00 0.00 0.00 0.00 0.00 0.00 0.00 0.00 0.00 0.00 0.00 0.00 0.00 0.00 0.00 0.00 0.00 0.00 0.00 0.00 0.00 0.00 0.00 0.00 0.00 0.00 0.00 0.00 0.00 0.00 0.00 0.00 0.00 0.00 0.00 0.00 0.00 0.00 0.00 0.00
0.00 0.00 0.00 0.00 0.00 0.00 0.00 0.00 0.00 0.00 0.00 0.00 0.01 0.00 0.00 0.01 0.00 0.00 0.00 0.00 0.00 0.00 0.00 0.00 0.00 0.00 0.00 0.00 0.00 0.00 0.00 0.00 0.00 0.00 0.00 0.00 0.00 0.00 0.00 0.00 0.00 0.00 0.00 0.00
0.00 0.00 0.00 0.00 0.00 0.00 0.00 0.00 0.00 0.00 0.00 0.01 0.01 0.01 0.01 0.01 0.00 0.00 0.00 0.00 0.00 0.00 0.00 0.00 0.00 0.00 0.00 0.00 0.00 0.00 0.00 0.00 0.00 0.00 0.00 0.00 0.00 0.00 0.00 0.00 0.00 0.00 0.00 0.00
0.00 0.00 0.00 0.00 0.00 0.00 0.00 0.00 0.00 0.00 0.00 0.00 0.00 0.00 0.00 0.00 0.00 0.00 0.00 0.00 0.00 0.00 0.00 0.00 0.00 0.00 0.00 0.00 0.00 0.00 0.00 0.00 0.00 0.00 0.00 0.00 0.00 0.00 0.00 0.00 0.00 0.00 0.00 0.00
MSLP
1020.27 1019.75 1018.90 1018.25 1018.33 1018.47 1018.31 1017.79 1017.09 1016.65 1016.89 1017.46 1016.39 1015.44 1015.16 1015.38 1016.77 1017.02 1017.48 1017.94 1018.20 1018.44 1018.69 1018.87 1018.91 1018.77 1018.60 1018.22 1017.68 1017.17 1016.57 1016.24 1015.72 1015.53 1015.80 1015.94 1016.26 1016.48 1016.84 1017.02 1017.43 1017.81 1018.38 1019.35
1020.51 1019.54 1019.17 1019.66 1019.63 1019.43 1018.91 1018.21 1017.42 1017.03 1017.27 1017.83 1016.49 1015.22 1014.94 1014.91 1016.23 1017.24 1017.95 1018.47 1018.90 1019.10 1019.11 1019.31 1019.42 1019.26 1019.07 1018.90 1018.65 1018.15 1017.85 1017.32 1016.67 1016.18 1016.23 1016.22 1016.51 1016.83 1017.13 1017.35 1017.80 1018.11 1018.49 1019.02
1020.19 1020.02 1020.33 1020.31 1020.11 1019.98 1019.39 1018.87 1018.34 1017.99 1017.92 1017.59 1017.01 1015.03 1013.79 1014.11 1016.22 1017.73 1018.58 1019.11 1019.52 1019.75 1019.82 1019.88 1019.74 1019.77 1019.70 1019.43 1019.20 1018.81 1018.65 1018.37 1017.78 1017.23 1016.79 1017.03 1017.05 1017.17 1017.70 1017.95 1018.27 1018.53 1018.67 1019.06
1020.62 1020.59 1020.84 1020.73 1020.48 1020.23 1019.59 1019.05 1019.08 1019.05 1018.89 1017.73 1017.80 1015.35 1014.12 1014.23 1016.23 1017.53 1018.45 1019.03 1019.71 1020.08 1020.27 1020.42 1020.40 1020.22 1020.34 1020.12 1019.90 1019.44 1019.17 1018.91 1018.59 1018.32 1017.80 1017.42 1017.38 1017.49 1017.82 1018.08 1018.40 1018.72 1018.96 1019.42
1020.80 1021.04 1021.02 1020.78 1020.39 1020.36 1019.82 1019.92 1019.73 1019.66 1019.31 1018.51 1017.45 1017.27 1014.18 1014.78 1015.67 1016.85 1018.13 1019.19 1020.00 1020.56 1020.70 1020.77 1020.93 1020.77 1020.79 1020.78 1020.42 1020.09 1019.91 1019.54 1019.35 1019.18 1018.95 1018.59 1018.31 1018.22 1018.55 1018.58 1018.83 1019.21 1019.53 1019.88
1021.28 1021.62 1021.38 1020.75 1020.86 1020.91 1020.89 1020.72 1020.41 1020.27 1019.97 1018.69 1017.28 1016.73 1014.79 1014.76 1015.78 1016.15 1018.00 1019.36 1020.21 1020.76 1021.09 1021.12 1021.22 1021.28 1021.22 1021.24 1021.03 1020.79 1020.39 1020.23 1019.96 1019.59 1019.59 1019.56 1019.52 1019.24 1019.00 1019.29 1019.47 1019.66 1019.82 1020.13
1021.20 1021.06 1021.14 1021.44 1021.18 1021.24 1021.41 1021.12 1020.64 1020.22 1020.19 1018.41 1017.89 1017.16 1015.74 1015.99 1016.74 1017.11 1018.30 1019.52 1020.40 1020.89 1021.26 1021.43 1021.56 1021.57 1021.63 1021.55 1021.56 1021.32 1021.08 1020.88 1020.69 1020.32 1020.19 1020.19 1020.05 1019.90 1019.94 1019.87 1019.74 1019.88 1020.12 1020.30
1021.07 1020.84 1021.48 1021.48 1021.33 1021.06 1021.21 1021.55 1021.31 1020.28 1019.68 1018.87 1018.83 1017.64 1016.29 1017.72 1018.03 1018.16 1018.89 1019.88 1020.60 1020.96 1021.39 1021.68 1021.74 1021.77 1021.88 1021.86 1021.91 1021.89 1021.75 1021.55 1021.38 1021.14 1021.05 1020.84 1020.47 1020.40 1020.33 1020.25 1020.20 1020.33 1020.35 1020.29
1021.88 1021.64 1022.06 1022.23 1022.09 1022.07 1021.59 1021.74 1021.96 1021.73 1021.22 1020.83 1018.63 1017.34 1018.15 1018.38 1018.93 1019.41 1019.95 1020.43 1020.57 1020.98 1021.38 1021.57 1021.72 1021.77 1021.99 1022.19 1022.17 1022.20 1022.19 1022.18 1022.18 1021.96 1021.74 1021.36 1021.05 1020.96 1020.96 1020.89 1020.68 1020.59 1020.45 1020.39
1023.22 1022.78 1022.47 1022.72 1022.75 1022.44 1022.36 1022.47 1022.47 1022.51 1021.42 1019.84 1018.11 1017.31 1017.22 1018.13 1018.89 1019.69 1020.05 1020.17 1020.46 1020.94 1021.45 1021.66 1021.85 1021.98 1022.06 1022.32 1022.44 1022.39 1022.40 1022.45 1022.50 1022.43 1022.25 1022.09 1021.96 1021.75 1021.53 1021.36 1021.28 1021.20 1020.92 1020.56
1023.92 1023.86 1023.02 1023.12 1022.56 1022.13 1022.68 1022.80 1022.99 1022.68 1021.92 1020.36 1018.77 1017.10 1017.70 1018.03 1018.37 1019.13 1019.57 1019.82 1020.26 1020.93 1021.44 1021.75 1021.99 1022.05 1022.16 1022.35 1022.49 1022.59 1022.60 1022.65 1022.71 1022.76 1022.70 1022.66 1022.64 1022.64 1022.42 1022.15 1021.99 1021.78 1021.40 1021.13
1024.47 1024.54 1023.69 1022.92 1022.95 1023.28 1023.27 1022.96 1023.00 1022.86 1021.59 1020.55 1019.82 1017.52 1018.30 1018.62 1018.95 1019.08 1019.36 1019.68 1020.13 1020.85 1021.43 1021.80 1022.01 1022.13 1022.15 1022.26 1022.38 1022.55 1022.76 1022.84 1023.02 1023.02 1022.99 1023.04 1023.15 1023.18 1023.14 1023.11 1022.87 1022.53 1022.29 1022.07
1025.46 1025.39 1024.67 1023.14 1023.80 1023.76 1023.81 1023.22 1023.49 1023.39 1023.49 1021.58 1020.65 1018.34 1019.32 1019.72 1019.58 1019.60 1019.66 1019.96 1020.52 1021.20 1021.57 1021.86 1022.09 1022.22 1022.26 1022.42 1022.63 1022.68 1022.80 1022.93 1023.11 1023.21 1023.32 1023.43 1023.53 1023.58 1023.75 1023.71 1023.45 1023.20 1022.90 1022.64
1026.30 1026.14 1025.51 1024.56 1023.72 1023.97 1024.21 1023.94 1024.01 1024.30 1023.66 1021.95 1020.73 1019.55 1019.71 1019.77 1019.95 1020.07 1020.20 1020.34 1020.87 1021.52 1021.91 1022.21 1022.47 1022.54 1022.65 1022.76 1022.98 1023.05 1022.96 1022.96 1023.17 1023.32 1023.49 1023.76 1023.94 1024.04 1024.14 1023.98 1023.73 1023.48 1023.29 1022.94
1027.17 1026.83 1026.34 1025.58 1025.22 1025.16 1024.76 1024.49 1024.09 1023.94 1023.46 1023.33 1020.83 1020.66 1019.69 1020.02 1020.37 1020.66 1020.77 1020.77 1020.99 1021.50 1022.20 1022.65 1022.98 1023.15 1023.27 1023.30 1023.42 1023.54 1023.49 1023.34 1023.27 1023.34 1023.66 1023.95 1024.08 1024.16 1024.16 1024.04 1023.87 1023.57 1023.32 1023.03
1028.12 1027.29 1027.24 1026.23 1026.10 1025.74 1024.91 1024.27 1024.03 1023.44 1022.97 1022.55 1021.69 1020.18 1020.20 1020.15 1020.16 1020.66 1021.23 1021.62 1021.78 1022.20 1022.86 1023.11 1023.40 1023.60 1023.72 1023.79 1023.87 1023.78 1023.60 1023.59 1023.64 1023.58 1023.62 1023.83 1024.09 1024.15 1024.05 1023.92 1023.80 1023.60 1023.37 1023.06
1028.34 1028.07 1028.28 1026.74 1026.93 1026.43 1024.84 1023.34 1022.73 1022.36 1022.25 1022.51 1021.60 1019.99 1020.62 1020.49 1020.79 1021.15 1021.43 1021.99 1022.35 1022.65 1023.10 1023.46 1023.77 1024.01 1024.15 1024.18 1024.18 1024.08 1023.90 1023.72 1023.68 1023.63 1023.58 1023.76 1023.84 1023.89 1023.86 1023.88 1023.82 1023.61 1023.42 1023.19
1028.38 1028.65 1028.65 1027.80 1027.70 1025.78 1022.66 1023.13 1022.89 1022.60 1022.10 1021.61 1020.82 1020.81 1020.96 1021.05 1021.29 1021.61 1022.11 1022.31 1022.59 1022.98 1023.34 1023.74 1024.05 1024.25 1024.30 1024.33 1024.43 1024.40 1024.19 1023.79 1023.52 1023.46 1023.49 1023.46 1023.55 1023.71 1023.68 1023.70 1023.67 1023.50 1023.24 1023.05
1028.98 1029.00 1028.74 1028.24 1026.65 1024.51 1022.94 1022.14 1022.19 1022.39 1021.49 1021.42 1020.51 1020.33 1020.47 1020.51 1020.79 1021.23 1021.65 1022.36 1022.79 1023.11 1023.50 1023.92 1024.22 1024.52 1024.54 1024.57 1024.52 1024.41 1024.00 1023.80 1023.74 1023.40 1022.88 1022.47 1022.63 1023.08 1023.32 1023.51 1023.38 1023.17 1022.99 1022.75
1029.58 1029.58 1029.23 1027.88 1026.83 1024.58 1022.14 1022.45 1023.10 1023.10 1021.90 1021.36 1020.98 1020.65 1020.59 1020.66 1020.91 1021.16 1021.87 1022.49 1023.02 1023.34 1023.68 1024.13 1024.37 1024.61 1024.88 1024.79 1024.57 1024.30 1024.02 1023.75 1023.48 1023.25 1022.76 1022.40 1022.41 1022.56 1022.71 1022.75 1022.87 1022.82 1022.77 1022.55
1029.43 1029.24 1028.38 1027.17 1026.23 1024.21 1023.04 1023.27 1023.83 1024.21 1023.55 1022.85 1022.40 1021.97 1021.74 1021.58 1021.86 1022.31 1022.56 1022.91 1023.39 1023.74 1024.14 1024.36 1024.64 1024.95 1024.99 1024.92 1024.67 1024.38 1024.03 1023.65 1023.41 1023.06 1022.59 1022.21 1021.98 1022.01 1022.07 1022.19 1022.32 1022.38 1022.41 1022.30
1027.74 1027.79 1027.29 1026.75 1025.81 1024.47 1024.07 1024.63 1025.57 1026.17 1025.16 1025.30 1025.00 1024.52 1024.27 1023.66 1023.24 1023.30 1023.36 1023.23 1023.53 1024.02 1024.35 1024.74 1024.97 1024.99 1025.08 1025.01 1024.82 1024.43 1024.01 1023.77 1023.50 1023.08 1022.67 1022.22 1021.91 1021.59 1021.45 1021.57 1021.69 1021.89 1021.99 1021.89
1027.04 1026.47 1026.35 1025.93 1024.46 1024.47 1025.09 1026.29 1027.33 1027.48 1027.28 1026.99 1027.11 1026.77 1026.30 1026.00 1025.52 1025.31 1024.87 1024.45 1024.32 1024.51 1024.72 1024.89 1025.09 1025.05 1025.07 1024.98 1024.83 1024.42 1024.11 1024.06 1023.79 1023.57 1022.98 1022.34 1021.77 1021.38 1021.15 1020.96 1020.93 1021.06 1021.14 1021.22
1026.35 1026.43 1026.61 1026.12 1025.05 1025.34 1026.01 1027.22 1027.85 1028.33 1028.59 1028.79 1028.83 1028.67 1028.22 1027.72 1027.27 1026.76 1026.28 1025.96 1025.68 1025.65 1025.57 1025.70 1025.84 1025.68 1025.38 1025.21 1025.06 1024.82 1024.57 1024.37 1024.24 1023.75 1023.03 1022.33 1021.56 1020.97 1020.64 1020.48 1020.22 1020.18 1020.19 1020.28
1026.01 1027.00 1026.59 1026.37 1026.01 1026.59 1026.51 1027.51 1028.54 1029.02 1029.51 1029.84 1029.99 1029.74 1029.42 1029.15 1028.52 1028.02 1027.53 1027.28 1026.86 1026.59 1026.50 1026.62 1026.49 1026.15 1025.71 1025.58 1025.25 1025.10 1024.96 1024.88 1024.52 1023.85 1023.07 1022.23 1021.51 1020.79 1020.14 1019.69 1019.50 1019.32 1019.14 1019.21
1026.21 1026.86 1027.46 1027.14 1027.90 1028.74 1028.52 1028.81 1029.46 1029.89 1030.53 1030.77 1030.69 1030.26 1030.23 1030.11 1029.74 1029.43 1028.69 1028.25 1027.93 1027.60 1027.43 1027.24 1027.05 1026.65 1026.05 1025.73 1025.29 1025.16 1025.08 1024.93 1024.58 1023.84 1023.06 1022.15 1021.31 1020.52 1019.80 1019.23 1018.74 1018.48 1018.54 1018.66
Thickness
5554 5557 5563 5572 5566 5559 5552 5551 5555 5562 5558 5540 5551 5560 5563 5563 5544 5544 5541 5535 5532 5528 5526 5522 5521 5522 5523 5527 5533 5539 5547 5551 5559 5564 5566 5567 5565 5566 5567 5569 5568 5566 5563 5558
5547 5554 5558 5546 5542 5539 5541 5542 5548 5553 5548 5532 5544 5554 5560 5560 5546 5536 5529 5525 5520 5517 5517 5513 5511 5513 5513 5514 5517 5523 5527 5533 5542 5551 5553 5558 5557 5556 5557 5560 5560 5559 5558 5555
5545 5547 5536 5534 5533 5528 5532 5531 5535 5535 5534 5532 5531 5547 5563 5564 5538 5522 5514 5509 5507 5503 5502 5501 5502 5502 5501 5503 5505 5510 5513 5516 5523 5533 5540 5540 5544 5548 5544 5546 5549 5551 5551 5551
5535 5533 5524 5524 5522 5524 5522 5533 5524 5518 5514 5519 5519 5524 5554 5556 5529 5516 5508 5504 5498 5493 5492 5489 5489 5491 5489 5491 5493 5497 5500 5504 5507 5511 5521 5530 5534 5538 5537 5538 5539 5541 5543 5542
5530 5519 5516 5515 5519 5516 5519 5511 5509 5507 5504 5507 5520 5497 5547 5542 5530 5519 5505 5494 5486 5480 5478 5478 5476 5478 5478 5478 5481 5485 5486 5491 5494 5496 5501 5508 5517 5519 5520 5524 5525 5527 5528 5529
5512 5505 5506 5510 5506 5501 5498 5496 5494 5492 5490 5483 5515 5508 5526 5537 5522 5522 5500 5483 5474 5469 5466 5466 5465 5465 5466 5465 5468 5471 5476 5478 5481 5486 5488 5491 5494 5501 5508 5509 5511 5514 5517 5518
5508 5505 5502 5493 5493 5490 5482 5485 5479 5479 5461 5481 5492 5494 5511 5513 5503 5499 5485 5471 5462 5458 5456 5454 5452 5452 5452 5454 5454 5458 5462 5465 5468 5472 5475 5478 5482 5486 5489 5493 5499 5502 5504 5506
5504 5505 5487 5486 5485 5486 5480 5473 5470 5467 5484 5486 5463 5466 5505 5469 5473 5478 5470 5457 5447 5445 5442 5440 5440 5441 5440 5442 5442 5444 5447 5451 5455 5459 5460 5464 5469 5473 5476 5480 5483 5486 5491 5496
5491 5490 5471 5466 5466 5466 5466 5454 5459 5442 5442 5414 5468 5482 5451 5449 5446 5445 5440 5435 5437 5433 5431 5430 5430 5431 5430 5429 5430 5431 5433 5435 5438 5442 5447 5452 5457 5459 5462 5466 5471 5475 5478 5483
5462 5461 5459 5455 5449 5452 5447 5444 5434 5428 5417 5431 5464 5471 5469 5442 5438 5429 5426 5427 5426 5422 5417 5418 5418 5418 5419 5418 5418 5420 5421 5423 5426 5429 5433 5437 5441 5445 5449 5452 5456 5459 5464 5470
5445 5439 5453 5443 5445 5452 5434 5422 5417 5423 5427 5423 5427 5452 5450 5443 5440 5424 5421 5421 5417 5410 5406 5405 5405 5406 5406 5406 5407 5409 5411 5412 5413 5416 5420 5423 5426 5429 5434 5438 5442 5445 5450 5456
5433 5421 5428 5442 5432 5416 5411 5416 5417 5402 5414 5429 5413 5429 5430 5423 5419 5422 5413 5410 5407 5399 5394 5391 5392 5393 5395 5396 5397 5397 5397 5399 5401 5404 5407 5410 5412 5415 5418 5421 5426 5432 5436 5441
5408 5404 5408 5428 5412 5404 5392 5405 5395 5389 5360 5385 5386 5415 5401 5393 5394 5397 5398 5393 5386 5381 5379 5378 5379 5380 5382 5383 5383 5384 5385 5386 5387 5389 5392 5395 5397 5401 5402 5406 5411 5417 5423 5428
5392 5390 5397 5409 5418 5402 5380 5385 5381 5359 5354 5379 5385 5391 5399 5391 5379 5378 5377 5377 5371 5364 5362 5362 5362 5365 5366 5366 5366 5367 5370 5373 5375 5376 5378 5379 5382 5385 5388 5393 5399 5404 5410 5416
5376 5369 5370 5373 5376 5367 5363 5359 5364 5350 5346 5334 5370 5358 5374 5371 5360 5352 5354 5360 5358 5354 5348 5346 5344 5344 5345 5346 5347 5347 5350 5355 5359 5363 5363 5364 5367 5371 5375 5381 5386 5393 5399 5405
5353 5366 5345 5340 5354 5347 5336 5347 5346 5347 5339 5334 5341 5346 5365 5359 5356 5343 5333 5328 5333 5328 5323 5322 5322 5323 5324 5325 5328 5331 5335 5338 5342 5345 5347 5350 5351 5355 5361 5367 5372 5379 5385 5392
5343 5346 5318 5341 5318 5310 5314 5343 5349 5342 5338 5319 5314 5339 5336 5329 5326 5321 5320 5315 5313 5311 5308 5306 5305 5304 5306 5308 5311 5314 5319 5324 5327 5331 5332 5333 5337 5341 5347 5351 5356 5362 5369 5376
5332 5322 5319 5314 5288 5301 5351 5334 5325 5318 5322 5323 5320 5318 5317 5304 5304 5303 5296 5297 5297 5294 5292 5291 5289 5287 5290 5292 5293 5296 5299 5305 5312 5315 5316 5318 5322 5326 5331 5335 5340 5346 5353 5360
5318 5314 5304 5291 5303 5317 5334 5335 5322 5305 5314 5318 5316 5313 5310 5306 5299 5296 5289 5281 5279 5279 5277 5274 5271 5269 5269 5271 5275 5278 5282 5287 5289 5293 5302 5310 5313 5315 5316 5318 5324 5331 5338 5345
5295 5289 5286 5287 5271 5282 5334 5317 5296 5288 5286 5303 5298 5297 5294 5291 5276 5283 5267 5265 5260 5257 5254 5251 5251 5251 5248 5253 5257 5261 5264 5269 5271 5275 5282 5288 5293 5297 5299 5304 5308 5314 5320 5327
5281 5276 5274 5278 5270 5285 5307 5291 5275 5257 5267 5269 5269 5269 5268 5264 5257 5249 5246 5243 5240 5237 5232 5233 5231 5229 5229 5233 5236 5240 5245 5250 5254 5258 5263 5269 5275 5279 5282 5285 5289 5294 5300 5308
5296 5281 5279 5274 5264 5262 5280 5261 5250 5231 5236 5223 5222 5224 5218 5225 5226 5221 5221 5222 5219 5215 5212 5211 5211 5212 5210 5211 5216 5221 5227 5229 5233 5239 5245 5251 5257 5264 5268 5270 5274 5276 5280 5287
5290 5302 5298 5284 5291 5275 5256 5231 5210 5201 5196 5195 5185 5185 5182 5181 5184 5183 5185 5190 5192 5191 5192 5192 5192 5193 5193 5194 5195 5201 5205 5207 5211 5215 5222 5231 5240 5246 5251 5256 5260 5264 5268 5273
5291 5280 5270 5268 5277 5263 5242 5214 5202 5189 5177 5167 5158 5151 5149 5148 5150 5152 5154 5157 5161 5162 5163 5163 5162 5165 5170 5171 5173 5175 5180 5184 5187 5194 5202 5211 5222 5229 5235 5241 5247 5251 5256 5260
5294 5264 5266 5261 5261 5236 5238 5213 5192 5179 5166 5153 5141 5135 5128 5121 5124 5125 5129 5131 5136 5138 5137 5136 5137 5140 5145 5145 5149 5150 5153 5157 5162 5171 5181 5191 5200 5208 5217 5226 5234 5239 5245 5248
5284 5273 5260 5257 5230 5208 5207 5197 5179 5167 5151 5141 5131 5127 5117 5108 5104 5102 5108 5112 5113 5115 5115 5115 5115 5117 5122 5123 5127 5128 5128 5130 5137 5148 5159 5170 5180 5189 5199 5209 5219 5226 5231 5233